Tracking 28052 objects as of 24-Sep-2023
HD Live streaming from Space Station
objects crossing your sky now

STARLINK-6360

Track STARLINK-6360 now!
10-day predictions
STARLINK-6360 is classified as:


NORAD ID: 57235
Int'l Code: 2023-094T
Perigee: 565.5 km
Apogee: 567.1 km
Inclination: 43.0 °
Period: 95.8 minutes
Semi major axis: 6937 km
RCS: Unknown
Launch date: July 7, 2023
Source: United States (US)
Launch site: AIR FORCE WESTERN TEST RANGE (AFWTR)
Your satellite tracking list
Your tracking list is empty




NASA's NSSDC Master Catalog

Two Line Element Set (TLE):
1 57235U 23094T   23266.97820500 -.00004124  00000-0 -29063-3 0  9996
2 57235  43.0017 227.9978 0001087 276.9558  83.1161 15.02508685 12262
Source of the keplerian elements: AFSPC